Погода в Кучерянове

Россия / Удмуртская Республика     56°07′58″N   52°30′39″E
темп.,
°C
ветер,
м/с
пор.,
м/с
влажн.,
%
обл.,
%
осадки,
мм/ч
давл.,
гПа
погр.,
м
8 мая, сб
сб801:00+12ююз3773100 0.0 1015126
04:00+10зюз2278100 0.0 101614
07:00+12з1272100 0.0 101682
10:00+15з4565100 0.4 1017544
13:00+13сз3373100 1.3 1017358
16:00+16юз235635 1.8 10161255
19:00+15ююв22675 0.8 101650
22:00+11ююв22825 0.8 101619
9 мая, вс
вс901:00+10ююв22890 0.0 101621
04:00+9юв33880 0.0 101646
07:00+12юв36750 0.0 1016203
10:00+17юв56556 0.0 1016701
13:00+21ююв56400 0.0 10152166
16:00+22ююв563628 0.0 10152310
19:00+18юв4954100 0.0 1015197
22:00+17юв51356100 0.0 1016355
10 мая, пн
пн1001:00+13юв3106848 0.0 1017174
04:00+13юв346697 0.0 101870
07:00+15ююв2866100 0.0 1019254
10:00+18ююв4753100 0.0 1020419
13:00+21ю4644100 0.0 10201345
16:00+18сз3565100 0.0 1021155
19:00+15ссз7984100 0.5 1023486
22:00+12с5986100 0.6 1025337
11 мая, вт
вт1101:00+10с5889100 0.0 1026391
04:00+9с5994100 0.0 1028325
07:00+10ссв578687 0.0 1029388
10:00+14ссв44640 0.0 1030783
13:00+17ссв44453 0.0 10301225
16:00+18св44364 0.0 10291361
19:00+16всв34485 0.0 103098
22:00+11всв225220 0.0 103114
12 мая, ср
ср1201:00+10св22545 0.0 103220
04:00+8св22585 0.0 103217
07:00+11всв35555 0.0 1032176
10:00+16в344315 0.0 1032670
13:00+19в344067 0.0 10311055
16:00+20всв3342100 0.0 10301123
19:00+18всв22557 0.0 103032
22:00+15всв11591 0.0 102911